Weather History for Marysville, OH

Change the Weather History Date:

Saturday, January 19, 2013

  Actual Average (KDLZ) Record (KDLZ)
Temperature  
Mean Temperature 41 °F -  
Max Temperature 50 °F 33 °F 66 °F (1986)
Min Temperature 32 °F 15 °F -14 °F (1940)
Degree Days  
Heating Degree Days 24    
Moisture  
Dew Point 24 °F    
Average Humidity 51    
Maximum Humidity 68    
Minimum Humidity 37    
Precipitation  
Precipitation 0.00 in - - ()
Sea Level Pressure  
Sea Level Pressure 30.01 in    
Wind  
Wind Speed 18 mph (SW)    
Max Wind Speed 26 mph    
Max Gust Speed 34 mph    
Visibility 10 miles    
Events      
Averages and records for this station are not official NWS values.
T = Trace of Precipitation, MM = Missing Value Source: NWS Daily Summary

Daily Weather History Graph

Daily Weather History Graph

Search for Another Location

Airport:

Trip Planner

Search our weather history database for the weather conditions in past years. The results will help you decide how hot, cold, wet, or windy it might be!

Date:

Astronomy

Jan. 19, 2013 Rise Set
Actual Time 7:51 AM EST 5:36 PM EST
Civil Twilight 7:22 AM EST 6:06 PM EST
Nautical Twilight 6:49 AM EST 6:39 PM EST
Astronomical Twilight 6:16 AM EST 7:12 PM EST
Moon 12:02 PM EST (1/19) 1:25 AM EST (1/19)
Length of Visible Light 10h 44m
Length of Day
9h 44m
First Quarter, 57% of the Moon is Illuminated
Jan 19
First Quarter
Jan 26
Full
Feb 3
Last Quarter
Feb 10
New
Feb 17
First Quarter

Hourly Weather History & Observations

Time (EST) Temp. Windchill Dew Point Humidity Pressure Visibility Wind Dir Wind Speed Gust Speed Precip Events Conditions
12:14 AM 32.5 °F 22.3 °F 23.0 °F 68% 30.16 in 10.0 mi SSW 15.0 mph 19.6 mph N/A   Clear
12:34 AM 33.3 °F 23.2 °F 22.5 °F 65% 30.16 in 10.0 mi SSW 15.0 mph 21.9 mph N/A   Clear
12:54 AM 34.2 °F 24.0 °F 22.1 °F 61% 30.15 in 10.0 mi SW 16.1 mph 21.9 mph N/A   Clear
1:14 AM 34.5 °F 23.4 °F 21.9 °F 60% 30.15 in 10.0 mi SW 19.6 mph 24.2 mph N/A   Clear
1:34 AM 35.6 °F 24.8 °F 21.6 °F 57% 30.14 in 10.0 mi SW 19.6 mph 28.8 mph N/A   Clear
1:54 AM 36.0 °F 24.4 °F 21.4 °F 55% 30.13 in 10.0 mi SW 23.0 mph 26.5 mph N/A   Clear
2:14 AM 36.3 °F 26.1 °F 21.2 °F 54% 30.15 in 10.0 mi WSW 18.4 mph 25.3 mph N/A   Clear
2:34 AM 36.0 °F 25.0 °F 21.4 °F 55% 30.14 in 10.0 mi SW 20.7 mph 25.3 mph N/A   Clear
2:54 AM 35.6 °F 25.5 °F 21.7 °F 57% 30.14 in 10.0 mi WSW 17.3 mph 23.0 mph N/A   Clear
3:14 AM 35.4 °F 24.9 °F 21.7 °F 58% 30.14 in 10.0 mi WSW 18.4 mph 21.9 mph N/A   Clear
3:34 AM 35.2 °F 25.8 °F 21.7 °F 58% 30.13 in 10.0 mi SW 15.0 mph - N/A   Clear
3:54 AM 35.2 °F 25.4 °F 21.6 °F 58% 30.13 in 10.0 mi SW 16.1 mph 21.9 mph N/A   Clear
4:14 AM 35.6 °F 25.9 °F 21.4 °F 56% 30.12 in 10.0 mi SW 16.1 mph 21.9 mph N/A   Clear
4:34 AM 35.2 °F 26.2 °F 21.9 °F 58% 30.12 in 10.0 mi SW 13.8 mph - N/A   Clear
4:54 AM 34.9 °F 24.9 °F 21.9 °F 59% 30.12 in 10.0 mi SW 16.1 mph - N/A   Clear
5:14 AM 35.2 °F 25.4 °F 21.9 °F 58% 30.12 in 10.0 mi SW 16.1 mph - N/A   Clear
5:34 AM 35.6 °F 25.5 °F 21.9 °F 58% 30.12 in 10.0 mi SW 17.3 mph - N/A   Clear
5:54 AM 36.0 °F 26.3 °F 22.1 °F 57% 30.12 in 10.0 mi SW 16.1 mph 26.5 mph N/A   Clear
6:14 AM 36.5 °F 26.3 °F 21.7 °F 55% 30.11 in 10.0 mi SW 18.4 mph - N/A   Clear
6:34 AM 35.8 °F 26.5 °F 21.9 °F 57% 30.11 in 10.0 mi SW 15.0 mph 21.9 mph N/A   Clear
6:54 AM 35.6 °F 25.5 °F 22.1 °F 58% 30.11 in 10.0 mi SW 17.3 mph 21.9 mph N/A   Clear
7:14 AM 35.6 °F 25.2 °F 22.1 °F 58% 30.11 in 10.0 mi SW 18.4 mph 24.2 mph N/A   Clear
7:34 AM 35.6 °F 25.5 °F 21.9 °F 58% 30.11 in 10.0 mi SW 17.3 mph - N/A   Clear
7:54 AM 35.2 °F 25.0 °F 22.1 °F 59% 30.11 in 10.0 mi SW 17.3 mph 21.9 mph N/A   Clear
8:14 AM 35.6 °F 25.9 °F 22.1 °F 58% 30.12 in 10.0 mi SW 16.1 mph 19.6 mph N/A   Clear
8:34 AM 36.0 °F 26.3 °F 22.6 °F 58% 30.11 in 10.0 mi SW 16.1 mph 21.9 mph N/A   Clear
8:54 AM 37.2 °F 27.9 °F 22.8 °F 56% 30.12 in 10.0 mi SW 16.1 mph 23.0 mph N/A   Clear
9:14 AM 38.3 °F 29.3 °F 23.0 °F 54% 30.12 in 10.0 mi SW 16.1 mph 24.2 mph N/A   Clear
9:34 AM 39.4 °F 30.4 °F 23.5 °F 53% 30.12 in 10.0 mi SW 17.3 mph 23.0 mph N/A   Clear
9:54 AM 40.5 °F 31.8 °F 23.4 °F 51% 30.11 in 10.0 mi SW 17.3 mph 28.8 mph N/A   Clear
10:14 AM 41.4 °F 32.4 °F 23.5 °F 49% 30.12 in 10.0 mi SW 19.6 mph 28.8 mph N/A   Clear
10:34 AM 42.4 °F 33.3 °F 23.4 °F 47% 30.11 in 10.0 mi SW 21.9 mph 29.9 mph N/A   Clear
10:54 AM 43.7 °F 35.4 °F 24.1 °F 46% 30.10 in 10.0 mi SW 19.6 mph 23.0 mph N/A   Clear
11:14 AM 44.6 °F 36.1 °F 24.3 °F 45% 30.09 in 10.0 mi SW 21.9 mph 26.5 mph N/A   Clear
11:34 AM 45.5 °F 37.8 °F 24.3 °F 43% 30.08 in 10.0 mi SW 19.6 mph 26.5 mph N/A   Clear
11:54 AM 45.7 °F 37.8 °F 23.7 °F 42% 30.06 in 10.0 mi SW 20.7 mph 26.5 mph N/A   Clear
12:14 PM 46.6 °F - 24.1 °F 41% 30.04 in 10.0 mi SW 23.0 mph 29.9 mph N/A   Clear
12:34 PM 46.9 °F - 24.4 °F 41% 30.03 in 10.0 mi SW 23.0 mph 29.9 mph N/A   Clear
12:54 PM 47.3 °F - 25.0 °F 42% 30.01 in 10.0 mi SW 24.2 mph 31.1 mph N/A   Clear
1:14 PM 47.8 °F - 25.2 °F 41% 30.00 in 10.0 mi SW 23.0 mph 31.1 mph N/A   Clear
1:34 PM 48.2 °F - 24.8 °F 40% 29.99 in 10.0 mi WSW 23.0 mph 33.4 mph N/A   Clear
1:54 PM 48.6 °F - 24.8 °F 39% 29.98 in 10.0 mi SW 26.5 mph 34.5 mph N/A   Clear
2:14 PM 49.5 °F - 25.5 °F 39% 29.96 in 10.0 mi SW 25.3 mph - N/A   Clear
2:34 PM 50.0 °F - 24.8 °F 37% 29.95 in 10.0 mi SW 24.2 mph 33.4 mph N/A   Clear
2:54 PM 50.2 °F - 25.3 °F 38% 29.94 in 10.0 mi SW 23.0 mph 27.6 mph N/A   Clear
3:14 PM 50.2 °F - 25.0 °F 37% 29.92 in 10.0 mi SW 18.4 mph 31.1 mph N/A   Clear
3:34 PM 50.4 °F - 25.2 °F 37% 29.92 in 10.0 mi SW 23.0 mph 28.8 mph N/A   Clear
3:54 PM 50.0 °F - 24.8 °F 37% 29.91 in 10.0 mi SW 23.0 mph 32.2 mph N/A   Clear
4:14 PM 49.8 °F - 24.3 °F 37% 29.90 in 10.0 mi SW 21.9 mph 32.2 mph N/A   Clear
4:34 PM 49.3 °F - 24.6 °F 38% 29.89 in 10.0 mi SW 19.6 mph 27.6 mph N/A   Clear
4:54 PM 48.6 °F - 24.6 °F 39% 29.88 in 10.0 mi SSW 19.6 mph 28.8 mph N/A   Clear
5:14 PM 47.7 °F - 24.4 °F 40% 29.88 in 10.0 mi SW 17.3 mph 23.0 mph N/A   Clear
5:34 PM 46.6 °F - 25.7 °F 44% 29.87 in 10.0 mi SSW 15.0 mph 24.2 mph N/A   Clear
5:54 PM 45.9 °F 38.0 °F 26.4 °F 47% 29.86 in 10.0 mi SW 20.7 mph 24.2 mph N/A   Clear
6:14 PM 45.7 °F 38.0 °F 25.9 °F 46% 29.86 in 10.0 mi SW 19.6 mph 27.6 mph N/A   Clear
6:34 PM 44.6 °F 37.2 °F 26.8 °F 50% 29.87 in 10.0 mi SW 17.3 mph - N/A   Clear
6:54 PM 43.3 °F 36.1 °F 27.3 °F 53% 29.88 in 10.0 mi SW 15.0 mph - N/A   Clear
7:14 PM 43.7 °F 36.9 °F 27.0 °F 52% 29.88 in 10.0 mi SW 13.8 mph - N/A   Clear
7:34 PM 42.6 °F 35.9 °F 27.1 °F 54% 29.88 in 10.0 mi SW 12.7 mph - N/A   Clear
7:54 PM 42.3 °F 35.5 °F 26.6 °F 54% 29.87 in 10.0 mi SW 12.7 mph - N/A   Clear
8:14 PM 41.9 °F 34.6 °F 26.2 °F 54% 29.86 in 10.0 mi SW 13.8 mph - N/A   Clear
8:34 PM 41.0 °F 33.5 °F 26.4 °F 56% 29.85 in 10.0 mi SW 13.8 mph - N/A   Clear
8:54 PM 40.6 °F 33.4 °F 26.1 °F 56% 29.86 in 10.0 mi SW 12.7 mph 17.3 mph N/A   Clear
9:13 PM 43.0 °F 35.4 °F 25.7 °F 51% 29.86 in 10.0 mi SW 16.1 mph 20.7 mph N/A   Clear
9:34 PM 44.1 °F 36.8 °F 25.7 °F 49% 29.85 in 10.0 mi WSW 16.1 mph - N/A   Clear
9:54 PM 44.1 °F 36.2 °F 25.9 °F 49% 29.85 in 10.0 mi WSW 18.4 mph 24.2 mph N/A   Clear
10:14 PM 44.2 °F 35.9 °F 26.1 °F 49% 29.84 in 10.0 mi WSW 20.7 mph 31.1 mph N/A   Clear
10:34 PM 44.2 °F 35.9 °F 26.4 °F 50% 29.83 in 10.0 mi WSW 20.7 mph 26.5 mph N/A   Clear
10:54 PM 43.9 °F 35.7 °F 26.4 °F 50% 29.83 in 10.0 mi WSW 19.6 mph 23.0 mph N/A   Clear
11:14 PM 44.2 °F 36.2 °F 26.4 °F 50% 29.83 in 10.0 mi WSW 19.6 mph 28.8 mph N/A   Clear
11:34 PM 44.2 °F 35.2 °F 26.6 °F 50% 29.82 in 10.0 mi WSW 24.2 mph 29.9 mph N/A   Clear
11:54 PM 44.1 °F 35.9 °F 27.5 °F 52% 29.82 in 10.0 mi WSW 19.6 mph 26.5 mph N/A   Clear